Location: Colonia Mina de C?rbuni
(46.1667°N, 22.7167°E)
Time: 16:52:49
(UTC+00:00)

Vanguard 2 - Pass Details

Date: 20 April 2024
Orbit: 553 x 2914 km, 32.9° (Epoch: 17 May)

Event Time Altitude Azimuth Distance (km) Brightness Sun altitude
Rises 05:24:00 0° 273° (W) 6,756 11.7 18.1°
Reaches altitude 10° 05:29:09 10° 266° (W) 5,730 11.4 19.0°
Maximum altitude 05:43:30 34° 211° (SSW) 3,655 10.9 21.4°
Drops below altitude 10° 05:54:43 10° 153° (SSE) 4,459 12.0 23.4°
Sets 05:58:10 0° 144° (SE) 5,140 12.4 24.0°
